When you browse on this site, cookies collect data to enhance your experience and personalize the content and advertising you see.
Visit our Privacy Policy to learn more. By continuing to use the site, you agree to this use of cookies and data.

Hourly Weather Kalgoorlie

Today, 13 July, Monday

Time Temperature Precipitation Wind Pressure Humidity
00:00 +10°C° 0 mm 7 mps 733 mmHg 41%
01:00 +9°C° 0 mm 6 mps 732 mmHg 42%
02:00 +9°C° 0 mm 6 mps 732 mmHg 42%
03:00 +8°C° 0 mm 6 mps 732 mmHg 44%
04:00 +8°C° 0 mm 5 mps 732 mmHg 45%
05:00 +7°C° 0 mm 5 mps 732 mmHg 46%
06:00 +8°C° 0 mm 5 mps 732 mmHg 46%
07:00 +8°C° 0 mm 6 mps 732 mmHg 45%
08:00 +8°C° 0 mm 6 mps 733 mmHg 40%
09:00 +11°C° 0 mm 7 mps 732 mmHg 35%
10:00 +14°C° 0 mm 7 mps 732 mmHg 30%
11:00 +17°C° 0 mm 8 mps 732 mmHg 25%
12:00 +18°C° 0 mm 8 mps 731 mmHg 23%
13:00 +20°C° 0 mm 7 mps 731 mmHg 21%
14:00 +21°C° 0 mm 7 mps 730 mmHg 18%
15:00 +20°C° 0 mm 6 mps 730 mmHg 20%
16:00 +19°C° 0 mm 5 mps 730 mmHg 21%
17:00 +18°C° 0 mm 4 mps 730 mmHg 22%
18:00 +17°C° 0 mm 4 mps 730 mmHg 23%
19:00 +15°C° 0 mm 5 mps 730 mmHg 23%
20:00 +14°C° 0 mm 5 mps 730 mmHg 24%
21:00 +14°C° 0 mm 5 mps 730 mmHg 24%
22:00 +13°C° 0 mm 5 mps 730 mmHg 24%
23:00 +13°C° 0 mm 6 mps 729 mmHg 24%

Tomorrow, 14 July, Tuesday

Time Temperature Precipitation Wind Pressure Humidity
00:00 +11°C° 0 mm 6 mps 729 mmHg 24%
01:00 +11°C° 0 mm 6 mps 729 mmHg 24%
02:00 +11°C° 0 mm 6 mps 728 mmHg 24%
03:00 +10°C° 0 mm 6 mps 728 mmHg 24%
04:00 +10°C° 0 mm 6 mps 728 mmHg 24%
05:00 +10°C° 0 mm 7 mps 728 mmHg 24%
06:00 +10°C° 0 mm 7 mps 728 mmHg 23%
07:00 +11°C° 0 mm 8 mps 728 mmHg 21%
08:00 +11°C° 0 mm 9 mps 728 mmHg 20%
09:00 +12°C° 0 mm 9 mps 728 mmHg 31%
10:00 +13°C° 0 mm 10 mps 728 mmHg 41%
11:00 +14°C° 0 mm 11 mps 728 mmHg 52%
12:00 +14°C° 0 mm 10 mps 728 mmHg 55%
13:00 +13°C° 0 mm 9 mps 728 mmHg 58%
14:00 +13°C° 0 mm 8 mps 728 mmHg 61%
15:00 +14°C° 0 mm 7 mps 729 mmHg 59%
16:00 +14°C° 0 mm 6 mps 729 mmHg 57%
17:00 +14°C° 0 mm 5 mps 730 mmHg 55%
18:00 +13°C° 0 mm 4 mps 730 mmHg 57%
19:00 +12°C° 0 mm 4 mps 731 mmHg 60%
20:00 +10°C° 0 mm 3 mps 731 mmHg 62%
21:00 +10°C° 0 mm 3 mps 731 mmHg 63%
22:00 +9°C° 0 mm 2 mps 731 mmHg 63%
23:00 +9°C° 0 mm 2 mps 731 mmHg 64%

Day after tomorrow, 15 July, Wednesday

Time Temperature Precipitation Wind Pressure Humidity
00:00 +8°C° 0 mm 2 mps 731 mmHg 66%
01:00 +8°C° 0 mm 1 mps 731 mmHg 69%
02:00 +8°C° 0 mm 1 mps 731 mmHg 71%
03:00 +8°C° 0 mm 1 mps 731 mmHg 72%
04:00 +7°C° 0 mm 1 mps 731 mmHg 74%
05:00 +7°C° 0 mm 1 mps 731 mmHg 75%
06:00 +8°C° 0 mm 1 mps 732 mmHg 71%
07:00 +9°C° 0 mm 1 mps 732 mmHg 66%
08:00 +10°C° 0 mm 1 mps 732 mmHg 62%
09:00 +12°C° 0 mm 2 mps 732 mmHg 56%
10:00 +13°C° 0 mm 3 mps 733 mmHg 50%
11:00 +15°C° 0 mm 4 mps 733 mmHg 45%
12:00 +17°C° 0 mm 4 mps 732 mmHg 44%
13:00 +17°C° 0 mm 5 mps 731 mmHg 42%
14:00 +19°C° 0 mm 5 mps 730 mmHg 41%
15:00 +19°C° 0 mm 4 mps 730 mmHg 44%
16:00 +18°C° 0 mm 3 mps 731 mmHg 46%
17:00 +17°C° 0 mm 2 mps 731 mmHg 49%
18:00 +16°C° 0 mm 2 mps 731 mmHg 52%
19:00 +15°C° 0 mm 2 mps 731 mmHg 56%
20:00 +14°C° 0 mm 2 mps 730 mmHg 59%
21:00 +14°C° 0 mm 2 mps 731 mmHg 59%
22:00 +13°C° 0 mm 3 mps 731 mmHg 59%
23:00 +13°C° 0 mm 3 mps 731 mmHg 59%

16 July, Thursday

Time Temperature Precipitation Wind Pressure Humidity
00:00 +13°C° 0 mm 4 mps 730 mmHg 60%
01:00 +13°C° 0 mm 4 mps 730 mmHg 62%
02:00 +12°C° 0 mm 4 mps 730 mmHg 63%
03:00 +12°C° 0 mm 4 mps 730 mmHg 65%
04:00 +12°C° 0 mm 4 mps 730 mmHg 67%
05:00 +12°C° 0 mm 4 mps 730 mmHg 69%
06:00 +13°C° 0 mm 4 mps 730 mmHg 68%
07:00 +13°C° 0 mm 4 mps 730 mmHg 66%
08:00 +13°C° 0 mm 4 mps 730 mmHg 65%
09:00 +16°C° 0 mm 6 mps 730 mmHg 57%
10:00 +20°C° 0 mm 7 mps 730 mmHg 49%
11:00 +23°C° 0 mm 9 mps 731 mmHg 41%
12:00 +23°C° 0 mm 8 mps 730 mmHg 39%
13:00 +24°C° 0 mm 8 mps 729 mmHg 37%
14:00 +24°C° 0 mm 8 mps 728 mmHg 35%
15:00 +23°C° 0 mm 7 mps 728 mmHg 36%
16:00 +22°C° 0 mm 5 mps 728 mmHg 38%
17:00 +22°C° 0 mm 4 mps 727 mmHg 39%
18:00 +21°C° 0 mm 4 mps 727 mmHg 39%
19:00 +20°C° 0 mm 4 mps 727 mmHg 39%
20:00 +19°C° 0 mm 4 mps 727 mmHg 38%
21:00 +17°C° 0 mm 5 mps 727 mmHg 46%
22:00 +16°C° 0 mm 6 mps 728 mmHg 53%
23:00 +16°C° 0 mm 6 mps 728 mmHg 60%

17 July, Friday

Time Temperature Precipitation Wind Pressure Humidity
00:00 +15°C° 0 mm 5 mps 727 mmHg 70%
01:00 +14°C° 0 mm 3 mps 727 mmHg 79%
02:00 +14°C° 0 mm 2 mps 726 mmHg 89%
03:00 +15°C° 0 mm 2 mps 726 mmHg 88%
04:00 +14°C° 0 mm 3 mps 726 mmHg 87%
05:00 +14°C° 0 mm 3 mps 726 mmHg 86%
06:00 +14°C° 0.5 mm 4 mps 726 mmHg 86%
07:00 +14°C° 0.5 mm 4 mps 726 mmHg 86%
08:00 +14°C° 0.5 mm 4 mps 726 mmHg 87%
09:00 +13°C° 1.3 mm 5 mps 726 mmHg 85%
10:00 +13°C° 1.3 mm 6 mps 726 mmHg 83%
11:00 +11°C° 1.3 mm 6 mps 726 mmHg 81%
12:00 +11°C° 1.6 mm 7 mps 726 mmHg 82%
13:00 +10°C° 1.6 mm 7 mps 726 mmHg 83%
14:00 +10°C° 1.6 mm 8 mps 726 mmHg 84%
15:00 +10°C° 0.1 mm 6 mps 726 mmHg 77%
16:00 +10°C° 0.1 mm 5 mps 727 mmHg 69%
17:00 +12°C° 0.1 mm 4 mps 727 mmHg 62%
18:00 +11°C° 0 mm 4 mps 728 mmHg 65%
19:00 +10°C° 0 mm 4 mps 729 mmHg 67%
20:00 +8°C° 0 mm 4 mps 729 mmHg 69%
21:00 +8°C° 0 mm 4 mps 729 mmHg 71%
22:00 +7°C° 0 mm 4 mps 730 mmHg 73%
23:00 +7°C° 0 mm 4 mps 730 mmHg 74%

18 July, Saturday

Time Temperature Precipitation Wind Pressure Humidity
00:00 +6°C° 0 mm 4 mps 730 mmHg 75%
01:00 +6°C° 0 mm 4 mps 730 mmHg 75%
02:00 +5°C° 0 mm 4 mps 730 mmHg 76%
03:00 +5°C° 0 mm 3 mps 730 mmHg 77%
04:00 +5°C° 0 mm 3 mps 730 mmHg 78%
05:00 +4°C° 0 mm 3 mps 730 mmHg 79%
06:00 +5°C° 0 mm 3 mps 731 mmHg 77%
07:00 +5°C° 0 mm 4 mps 731 mmHg 76%
08:00 +5°C° 0 mm 4 mps 731 mmHg 74%
09:00 +7°C° 0 mm 5 mps 731 mmHg 67%
10:00 +9°C° 0 mm 6 mps 731 mmHg 59%
11:00 +11°C° 0 mm 7 mps 731 mmHg 52%
12:00 +12°C° 0 mm 7 mps 731 mmHg 51%
13:00 +12°C° 0 mm 7 mps 730 mmHg 49%
14:00 +14°C° 0 mm 7 mps 730 mmHg 48%
15:00 +14°C° 0 mm 7 mps 730 mmHg 50%
16:00 +13°C° 0 mm 6 mps 730 mmHg 51%
17:00 +13°C° 0 mm 5 mps 730 mmHg 53%
18:00 +12°C° 0 mm 5 mps 730 mmHg 58%
19:00 +11°C° 0 mm 4 mps 731 mmHg 64%
20:00 +10°C° 0 mm 4 mps 731 mmHg 69%
21:00 +10°C° 0 mm 4 mps 731 mmHg 74%
22:00 +8°C° 0 mm 4 mps 731 mmHg 78%
23:00 +8°C° 0 mm 4 mps 732 mmHg 83%
Show more